Regional Weather Roundup
Issued by NWS

Home | Current Version | Previous Version | Text Only | Print | Product List | Glossary Off
Versions: 1 2 3 4 5 6 7 8 9 10 11 12 13 14 15 16 17 18 19 20 21 22 23 24 25 26 27

000
ASUS45 KSLC 302210
RWRUT

UTAH REGIONAL WEATHER ROUNDUP
NATIONAL WEATHER SERVICE SALT LAKE CITY UT
400 PM MDT MON MAY 30 2016

UTZ001>011-023>025-302300-

NORTHERN UTAH

CITY           SKY/WX    TMP DP  RH WIND       PRES   REMARKS
BRIGHAM CITY     N/A     73  41  31 S3        30.07F
HILL AFB       SUNNY     73  41  32 W13       30.09F
LOGAN          MOSUNNY   74  42  31 W10       30.07F
OGDEN          SUNNY     75  41  29 W10       30.07F
PROVO AIRPORT  MOSUNNY   75  43  31 W9        30.06F
SALT LAKE CITY PTSUNNY   78  36  21 N14G20    30.05F
VERNAL         SUNNY     73  36  25 SW5       30.04F
WENDOVER       MOSUNNY   77  39  25 CALM      30.06F
HEBER CITY     MOSUNNY   73  27  17 CALM      30.08S
WEST JORDAN    SUNNY     73  39  29 NW15G22   30.08F

$$

UTZ012>022-026-027-302300-

SOUTHERN/CENTRAL UTAH

CITY           SKY/WX    TMP DP  RH WIND       PRES   REMARKS
BLANDING       PTSUNNY   76  22  13 NW10      30.11F
BRYCE CANYON   CLOUDY    58  31  35 S8        30.22S
CEDAR CITY     MOSUNNY   75  32  20 E18G32    30.06S
DELTA          SUNNY     79  28  15 N14G22    30.04F
HANKSVILLE     MOSUNNY   86  28  12 CALM      29.96F
MILFORD        SUNNY     81  28  14 N18G25    30.03F
MOAB/CYNLANDS  MOSUNNY   83  23  11 NW15      29.94F
PRICE          SUNNY     77  23  13 W9G24     30.05F
ST GEORGE      PTCLDY    88  30  12 NE7G18    29.92S

$$

REGIONAL REPORTS     COLORADO/ARIZONA

CITY           SKY/WX    TMP DP  RH WIND       PRES   REMARKS
CRAIG, CO      CLOUDY    72  41  32 NW14      30.07F
GRAND JUNCTION CLOUDY    76  27  16 NW12      30.00R
RIFLE          CLOUDY    71  32  23 NW12G21   30.01F
MONTROSE       CLOUDY    72  33  24 VRB3      30.06S
CORTEZ         SUNNY     76  19  11 S7        30.03F
PAGE, AZ       CLOUDY    82  28  14 N16G22    29.95S
GRAND CANYON   PTSUNNY   70  25  18 N10       30.11F
KINGMAN        PTSUNNY   90  19   7 N18G24    29.93F
FLAGSTAFF      CLOUDY    67  21  17 VRB6      30.12F

$$

REGIONAL REPORTS    NEVADA/IDAHO/WYOMING

CITY           SKY/WX    TMP DP  RH WIND       PRES   REMARKS
LAS VEGAS, NV  MOSUNNY   94  26   9 CALM      29.81F
ELY            SUNNY     72  29  20 N7G20     30.14F
ELKO           SUNNY     76  30  18 VRB7G20   30.12S
POCATELLO, ID  MOSUNNY   73  27  18 W22G30    30.10F
BURLEY         PTSUNNY   69  31  24 W17G26    30.10F
EVANSTON, WY   PTSUNNY   64  33  31 W17G26    30.18S
ROCK SPRINGS   MOSUNNY   68  27  21 W22G38    30.10F
KEMMERER         N/A     63  32  31 W20G28    30.17F

$$




USA.gov is the U.S. government's official web portal to all federal, state and local government web resources and services.